,,Stat6,,Stat2,,Stat8,,Stat9,,Stat10,,Wind1,,Wind1,
time,status,PA1M_AVG,status,PR1M_SUM,status,RH1M_AVG,status,SR1M_AVG,status,TA1M_AVG,status,W1dAve1m,status,W1sAve1m,
2004-06-19, 00:00:01,VALID,920.042,VALID,0,VALID,98.3713,VALID,-0.0509425,VALID,20.1128,VALID,64,VALID,0.0559304,
2004-06-19, 00:01:00,VALID,920.009,VALID,0,VALID,97.9898,VALID,-0.0679233,VALID,20.0867,VALID,64,VALID,0,
2004-06-19, 00:02:00,VALID,919.99,VALID,0,VALID,97.9898,VALID,-0.101885,VALID,20.0711,VALID,64,VALID,0,
2004-06-19, 00:03:00,VALID,919.981,VALID,0,VALID,98.1043,VALID,-0.0509425,VALID,20.0867,VALID,64,VALID,0,
2004-06-19, 00:04:00,VALID,919.968,VALID,0,VALID,97.8525,VALID,-0.0679233,VALID,20.0671,VALID,64,VALID,0,
2004-06-19, 00:05:00,VALID,919.945,VALID,0,VALID,97.7101,VALID,-0.101885,VALID,20.0447,VALID,64,VALID,0.124814,
2004-06-19, 00:06:00,VALID,919.938,VALID,0,VALID,97.8271,VALID,0.0339617,VALID,20.0236,VALID,64,VALID,0,
2004-06-19, 00:07:00,VALID,919.93,VALID,0,VALID,97.85,VALID,0.0339617,VALID,20.0238,VALID,64,VALID,0.0354288,
2004-06-19, 00:08:00,VALID,919.923,VALID,0,VALID,97.9339,VALID,0.0339617,VALID,20.0273,VALID,64,VALID,0.00961538,
2004-06-19, 00:09:00,VALID,919.913,VALID,0,VALID,97.9403,VALID,0.0169808,VALID,20.0241,VALID,64,VALID,0.0807292,
2004-06-19, 00:10:00,VALID,919.902,VALID,0,VALID,97.7559,VALID,0.0339617,VALID,20.0209,VALID,65,VALID,0.150534,
2004-06-19, 00:11:00,VALID,919.888,VALID,0,VALID,97.4799,VALID,0.0339617,VALID,19.9692,VALID,66,VALID,0.269886,
2004-06-19, 00:12:00,VALID,919.887,VALID,0,VALID,97.1455,VALID,0.0339617,VALID,19.9372,VALID,66,VALID,0.344815,
2004-06-19, 00:13:00,VALID,919.857,VALID,0,VALID,96.9777,VALID,0,VALID,19.8659,VALID,66,VALID,0.268601,
2004-06-19, 00:14:00,VALID,919.849,VALID,0,VALID,97.2434,VALID,0.0339617,VALID,19.8401,VALID,66,VALID,0.350123,
2004-06-19, 00:15:00,VALID,919.835,VALID,0,VALID,97.1773,VALID,0.0169808,VALID,19.7852,VALID,66,VALID,0.439499,
2004-06-19, 00:16:00,VALID,919.82,VALID,0,VALID,97.0298,VALID,0,VALID,19.7114,VALID,66,VALID,0.407738,
2004-06-19, 00:17:00,VALID,919.813,VALID,0,VALID,96.8963,VALID,0,VALID,19.6404,VALID,66,VALID,0.443216,
2004-06-19, 00:18:00,VALID,919.814,VALID,0,VALID,97.4278,VALID,0.0169808,VALID,19.6012,VALID,66,VALID,0.623285,
2004-06-19, 00:19:00,VALID,919.819,VALID,0,VALID,97.8843,VALID,0,VALID,19.6203,VALID,66,VALID,0.491044,
2004-06-19, 00:20:00,VALID,919.815,VALID,0,VALID,97.7508,VALID,0,VALID,19.621,VALID,66,VALID,0.328303,
2004-06-19, 00:21:00,VALID,919.825,VALID,0,VALID,98.0674,VALID,0.0339617,VALID,19.5947,VALID,66,VALID,0.412642,
2004-06-19, 00:22:00,VALID,919.832,VALID,0,VALID,98.9575,VALID,0.0169808,VALID,19.6819,VALID,78,VALID,0.657227,
2004-06-19, 00:23:00,VALID,919.822,VALID,0,VALID,99.0542,VALID,0.0339617,VALID,19.7626,VALID,95,VALID,0.942708,
2004-06-19, 00:24:00,VALID,919.819,VALID,0,VALID,98.8507,VALID,0.0169808,VALID,19.8075,VALID,95,VALID,0.929324,
2004-06-19, 00:25:00,VALID,919.811,VALID,0,VALID,98.6282,VALID,0.0169808,VALID,19.8527,VALID,95,VALID,0.856136,
2004-06-19, 00:26:00,VALID,919.8,VALID,0,VALID,98.2836,VALID,0.0679233,VALID,19.8788,VALID,95,VALID,0.876453,
2004-06-19, 00:27:00,VALID,919.789,VALID,0,VALID,98.0763,VALID,0.0339617,VALID,19.8915,VALID,95,VALID,0.931323,
2004-06-19, 00:28:00,VALID,919.786,VALID,0,VALID,97.9542,VALID,0.0339617,VALID,19.9012,VALID,95,VALID,0.775,
2004-06-19, 00:29:00,VALID,919.781,VALID,0,VALID,98.0674,VALID,0.0169808,VALID,19.9175,VALID,97,VALID,0.796684,
2004-06-19, 00:30:00,VALID,919.761,VALID,0,VALID,97.8245,VALID,0.0339617,VALID,19.9407,VALID,102,VALID,0.739462,
2004-06-19, 00:31:00,VALID,919.748,VALID,0,VALID,97.864,VALID,0.0339617,VALID,19.9441,VALID,102,VALID,0.755451,
2004-06-19, 00:32:00,VALID,919.728,VALID,0,VALID,97.9174,VALID,0.0169808,VALID,19.9372,VALID,100,VALID,0.801339,
2004-06-19, 00:33:00,VALID,919.711,VALID,0,VALID,98.0153,VALID,0.0169808,VALID,19.9339,VALID,99,VALID,0.851749,
2004-06-19, 00:34:00,VALID,919.699,VALID,0,VALID,98.4387,VALID,0,VALID,19.9598,VALID,106,VALID,0.972098,
2004-06-19, 00:35:00,VALID,919.699,VALID,0,VALID,97.8958,VALID,0.0339617,VALID,19.9501,VALID,102,VALID,0.809722,
2004-06-19, 00:36:00,VALID,919.682,VALID,0,VALID,97.6961,VALID,0.0509425,VALID,19.8885,VALID,96,VALID,0.635174,
2004-06-19, 00:37:00,VALID,919.679,VALID,0,VALID,97.5473,VALID,0.0169808,VALID,19.8306,VALID,91,VALID,0.43679,
2004-06-19, 00:38:00,VALID,919.668,VALID,0,VALID,97.0298,VALID,0.0339617,VALID,19.7273,VALID,91,VALID,0.282584,
2004-06-19, 00:39:00,VALID,919.664,VALID,0,VALID,96.8174,VALID,0.0339617,VALID,19.6302,VALID,91,VALID,0.327217,
2004-06-19, 00:40:00,VALID,919.656,VALID,0,VALID,97.3324,VALID,0.0509425,VALID,19.5818,VALID,91,VALID,0.410689,
2004-06-19, 00:41:00,VALID,919.637,VALID,0,VALID,98.206,VALID,0.0509425,VALID,19.6141,VALID,91,VALID,0.380265,
2004-06-19, 00:42:00,VALID,919.629,VALID,0,VALID,98.4006,VALID,0.0169808,VALID,19.6565,VALID,91,VALID,0.329268,
2004-06-19, 00:43:00,VALID,919.61,VALID,0,VALID,98.6129,VALID,0.0169808,VALID,19.6692,VALID,91,VALID,0.338986,
2004-06-19, 00:44:00,VALID,919.596,VALID,0,VALID,98.295,VALID,0.0679233,VALID,19.6593,VALID,91,VALID,0.490327,
2004-06-19, 00:45:00,VALID,919.582,VALID,0,VALID,98.1183,VALID,0.0339617,VALID,19.6081,VALID,91,VALID,0.467578,
2004-06-19, 00:46:00,VALID,919.544,VALID,0,VALID,98.3103,VALID,0.0169808,VALID,19.5954,VALID,91,VALID,0.512536,
2004-06-19, 00:47:00,VALID,919.532,VALID,0,VALID,96.8759,VALID,0,VALID,19.4402,VALID,87,VALID,0.516602,
2004-06-19, 00:48:00,VALID,919.489,VALID,0,VALID,96.5097,VALID,0,VALID,19.2729,VALID,69,VALID,0.575521,
2004-06-19, 00:49:00,VALID,919.466,VALID,0,VALID,97.232,VALID,0.0339617,VALID,19.2306,VALID,68,VALID,0.573864,
2004-06-19, 00:50:00,VALID,919.449,VALID,0,VALID,97.7343,VALID,0.0509425,VALID,19.2366,VALID,69,VALID,0.497396,
2004-06-19, 00:51:00,VALID,919.442,VALID,0,VALID,98.0992,VALID,-0.0509425,VALID,19.2482,VALID,69,VALID,0.522382,
2004-06-19, 00:52:00,VALID,919.429,VALID,0,VALID,98.8787,VALID,-0.0509425,VALID,19.3093,VALID,70,VALID,0.701672,
2004-06-19, 00:53:00,VALID,919.419,VALID,0,VALID,99.8044,VALID,-0.0679233,VALID,19.4514,VALID,79,VALID,0.759448,
2004-06-19, 00:54:00,VALID,919.427,VALID,0,VALID,99.8833,VALID,-0.0849042,VALID,19.5741,VALID,82,VALID,0.771984,
2004-06-19, 00:55:00,VALID,919.426,VALID,0,VALID,99.7803,VALID,-0.0509425,VALID,19.655,VALID,83,VALID,0.945122,
2004-06-19, 00:56:00,VALID,919.433,VALID,0,VALID,99.5285,VALID,-0.0509425,VALID,19.6801,VALID,83,VALID,0.8125,
2004-06-19, 00:57:00,VALID,919.442,VALID,0,VALID,99.2653,VALID,-0.0679233,VALID,19.7132,VALID,83,VALID,0.927455,
2004-06-19, 00:58:00,VALID,919.431,VALID,0,VALID,98.9474,VALID,-0.101885,VALID,19.7392,VALID,78,VALID,1.02435,
2004-06-19, 00:59:00,VALID,919.424,VALID,0,VALID,98.6816,VALID,-0.0169808,VALID,19.7616,VALID,82,VALID,0.973474,
2004-06-19, 01:00:00,VALID,919.403,VALID,0,VALID,98.3917,VALID,-0.0849042,VALID,19.7519,VALID,86,VALID,0.835366,
2004-06-19, 01:01:00,VALID,919.382,VALID,0,VALID,98.173,VALID,-0.0849042,VALID,19.7524,VALID,94,VALID,0.843178,
2004-06-19, 01:02:01,VALID,919.347,VALID,0,VALID,98.2213,VALID,-0.0679233,VALID,19.7328,VALID,103,VALID,0.857422,
2004-06-19, 01:03:00,VALID,919.328,VALID,0,VALID,98.1005,VALID,-0.0679233,VALID,19.7169,VALID,106,VALID,0.851563,
2004-06-19, 01:04:00,VALID,919.299,VALID,0,VALID,97.9695,VALID,-0.101885,VALID,19.6679,VALID,108,VALID,0.789971,
2004-06-19, 01:05:00,VALID,919.284,VALID,0,VALID,97.8958,VALID,-0.101885,VALID,19.6096,VALID,107,VALID,0.905878,
2004-06-19, 01:06:01,VALID,919.296,VALID,0,VALID,98.0967,VALID,0,VALID,19.5798,VALID,103,VALID,0.835366,
2004-06-19, 01:07:00,VALID,919.309,VALID,0,VALID,98.2035,VALID,0,VALID,19.5507,VALID,106,VALID,0.779204,
2004-06-19, 01:08:00,VALID,919.313,VALID,0,VALID,97.9097,VALID,0.0169808,VALID,19.4991,VALID,106,VALID,0.445313,
2004-06-19, 01:09:00,VALID,919.306,VALID,0,VALID,97.574,VALID,0.0169808,VALID,19.3888,VALID,106,VALID,0.43314,
2004-06-19, 01:10:00,VALID,919.282,VALID,0,VALID,96.8556,VALID,0,VALID,19.2403,VALID,106,VALID,0.436285,
2004-06-19, 01:11:00,VALID,919.269,VALID,0,VALID,97.7177,VALID,0,VALID,19.2023,VALID,105,VALID,0.578311,
2004-06-19, 01:12:00,VALID,919.241,VALID,0,VALID,99.0427,VALID,0,VALID,19.2696,VALID,105,VALID,0.872337,
2004-06-19, 01:13:00,VALID,919.235,VALID,0,VALID,99.517,VALID,0,VALID,19.3598,VALID,112,VALID,0.989099,
2004-06-19, 01:14:00,VALID,919.238,VALID,0,VALID,99.573,VALID,0,VALID,19.4052,VALID,110,VALID,0.894444,
2004-06-19, 01:15:00,VALID,919.237,VALID,0,VALID,99.4293,VALID,0,VALID,19.4052,VALID,102,VALID,0.640443,
2004-06-19, 01:16:01,VALID,919.256,VALID,0,VALID,99.5654,VALID,-0.0169808,VALID,19.4025,VALID,102,VALID,0.620276,
2004-06-19, 01:17:00,VALID,919.264,VALID,0,VALID,99.5959,VALID,0,VALID,19.4285,VALID,102,VALID,0.489099,
2004-06-19, 01:18:00,VALID,919.25,VALID,0,VALID,99.5933,VALID,0,VALID,19.4315,VALID,102,VALID,0.501674,
2004-06-19, 01:19:00,VALID,919.234,VALID,0,VALID,99.5259,VALID,0.0169808,VALID,19.4345,VALID,102,VALID,0.595052,
2004-06-19, 01:20:00,VALID,919.237,VALID,0,VALID,99.189,VALID,0.0169808,VALID,19.4052,VALID,102,VALID,0.550781,
2004-06-19, 01:21:00,VALID,919.228,VALID,0,VALID,98.6651,VALID,0,VALID,19.325,VALID,106,VALID,0.611192,
2004-06-19, 01:22:00,VALID,919.215,VALID,0,VALID,98.5773,VALID,0,VALID,19.2574,VALID,111,VALID,0.544922,
2004-06-19, 01:23:01,VALID,919.212,VALID,0,VALID,98.5824,VALID,0.0169808,VALID,19.2085,VALID,125,VALID,0.759487,
2004-06-19, 01:24:01,VALID,919.205,VALID,0,VALID,99.2411,VALID,0,VALID,19.2443,VALID,127,VALID,0.757102,
2004-06-19, 01:25:00,VALID,919.199,VALID,0,VALID,99.5234,VALID,0,VALID,19.2895,VALID,127,VALID,0.715588,
2004-06-19, 01:26:00,VALID,919.204,VALID,0,VALID,99.3568,VALID,-0.0169808,VALID,19.3026,VALID,122,VALID,0.679324,
2004-06-19, 01:27:00,VALID,919.2,VALID,0,VALID,99.3581,VALID,0,VALID,19.2865,VALID,106,VALID,0.73952,
2004-06-19, 01:28:00,VALID,919.174,VALID,0,VALID,99.5361,VALID,0,VALID,19.2793,VALID,88,VALID,0.759811,
2004-06-19, 01:29:00,VALID,919.164,VALID,0,VALID,99.676,VALID,0,VALID,19.3252,VALID,89,VALID,0.677269,
2004-06-19, 01:30:00,VALID,919.14,VALID,0,VALID,99.4764,VALID,0,VALID,19.3377,VALID,89,VALID,0.670099,
2004-06-19, 01:31:00,VALID,919.141,VALID,0,VALID,99.3632,VALID,0,VALID,19.3704,VALID,89,VALID,0.605015,
2004-06-19, 01:32:01,VALID,919.143,VALID,0,VALID,98.9207,VALID,0,VALID,19.3349,VALID,89,VALID,0.57431,
2004-06-19, 01:33:00,VALID,919.14,VALID,0,VALID,98.7299,VALID,0,VALID,19.2828,VALID,89,VALID,0.498183,
2004-06-19, 01:34:00,VALID,919.132,VALID,0,VALID,98.6981,VALID,0,VALID,19.2996,VALID,89,VALID,0.402253,
2004-06-19, 01:35:00,VALID,919.138,VALID,0,VALID,97.7826,VALID,-0.0169808,VALID,19.2028,VALID,89,VALID,0.234933,
2004-06-19, 01:36:01,VALID,919.145,VALID,0,VALID,97.0082,VALID,0,VALID,19.064,VALID,89,VALID,0.25327,
2004-06-19, 01:37:00,VALID,919.154,VALID,0,VALID,97.0794,VALID,-0.0169808,VALID,18.996,VALID,89,VALID,0.287972,
2004-06-19, 01:38:00,VALID,919.169,VALID,0,VALID,96.8925,VALID,-0.0339617,VALID,18.9256,VALID,89,VALID,0.277644,
2004-06-19, 01:39:00,VALID,919.151,VALID,0,VALID,96.8492,VALID,0,VALID,18.8184,VALID,89,VALID,0.378196,
2004-06-19, 01:40:00,VALID,919.154,VALID,0,VALID,97.4164,VALID,0,VALID,18.7829,VALID,89,VALID,0.311384,
2004-06-19, 01:41:00,VALID,919.156,VALID,0,VALID,98.0649,VALID,0,VALID,18.7859,VALID,89,VALID,0.273098,
2004-06-19, 01:42:00,VALID,919.142,VALID,0,VALID,98.4553,VALID,0,VALID,18.802,VALID,89,VALID,0,
2004-06-19, 01:43:01,VALID,919.135,VALID,0,VALID,99.1114,VALID,0,VALID,18.8668,VALID,89,VALID,0.19494,
2004-06-19, 01:44:00,VALID,919.115,VALID,0,VALID,99.0796,VALID,0,VALID,18.9155,VALID,89,VALID,0.339658,
2004-06-19, 01:45:00,VALID,919.109,VALID,0,VALID,98.9893,VALID,0,VALID,18.915,VALID,89,VALID,0.0417969,
2004-06-19, 01:46:00,VALID,919.093,VALID,0,VALID,98.9232,VALID,0.0169808,VALID,18.9088,VALID,89,VALID,0.0207698,
2004-06-19, 01:47:00,VALID,919.092,VALID,0,VALID,98.6028,VALID,0,VALID,18.8564,VALID,89,VALID,0.00175781,
2004-06-19, 01:48:01,VALID,919.076,VALID,0,VALID,98.0178,VALID,0.0169808,VALID,18.7665,VALID,89,VALID,0.0511719,
2004-06-19, 01:49:00,VALID,919.066,VALID,0,VALID,98.2302,VALID,0,VALID,18.7506,VALID,89,VALID,0.349359,
2004-06-19, 01:50:00,VALID,919.073,VALID,0,VALID,98.5544,VALID,0,VALID,18.7603,VALID,89,VALID,0.395433,
2004-06-19, 01:51:00,VALID,919.052,VALID,0,VALID,98.6269,VALID,0.0169808,VALID,18.7668,VALID,82,VALID,0.543501,
2004-06-19, 01:52:00,VALID,919.047,VALID,0,VALID,99.1597,VALID,0,VALID,18.8219,VALID,71,VALID,0.703926,
2004-06-19, 01:53:00,VALID,919.04,VALID,0,VALID,99.3619,VALID,0.0339617,VALID,18.8664,VALID,70,VALID,0.723514,
2004-06-19, 01:54:01,VALID,919.014,VALID,0,VALID,99.7192,VALID,0,VALID,18.9182,VALID,70,VALID,0.755952,
2004-06-19, 01:55:00,VALID,918.997,VALID,0,VALID,100,VALID,0,VALID,19.0153,VALID,70,VALID,0.797408,
2004-06-19, 01:56:00,VALID,918.984,VALID,0,VALID,100,VALID,0,VALID,19.1087,VALID,70,VALID,0.680382,
2004-06-19, 01:57:00,VALID,918.956,VALID,0,VALID,99.9891,VALID,-0.0339617,VALID,19.1643,VALID,70,VALID,0.50185,
2004-06-19, 01:58:00,VALID,918.948,VALID,0,VALID,99.7828,VALID,0,VALID,19.1675,VALID,70,VALID,0.369978,
2004-06-19, 01:59:00,VALID,918.919,VALID,0,VALID,99.3606,VALID,-0.0509425,VALID,19.1387,VALID,70,VALID,0.282158,
2004-06-19, 02:00:00,VALID,918.907,VALID,0,VALID,99.1839,VALID,0,VALID,19.0995,VALID,70,VALID,0.207031,
2004-06-19, 02:01:00,VALID,918.878,VALID,0,VALID,99.1165,VALID,0,VALID,19.0898,VALID,70,VALID,0.0897529,
2004-06-19, 02:02:00,VALID,918.862,VALID,0,VALID,98.8393,VALID,-0.0169808,VALID,19.0672,VALID,70,VALID,0,
2004-06-19, 02:03:01,VALID,918.862,VALID,0,VALID,98.6689,VALID,-0.0339617,VALID,19.0389,VALID,70,VALID,0.0918818,
2004-06-19, 02:04:00,VALID,918.84,VALID,0,VALID,98.6053,VALID,-0.0339617,VALID,19.0093,VALID,84,VALID,0.503819,
2004-06-19, 02:05:00,VALID,918.836,VALID,0,VALID,98.1475,VALID,-0.0509425,VALID,18.9478,VALID,132,VALID,0.798781,
2004-06-19, 02:06:01,VALID,918.824,VALID,0,VALID,98.3612,VALID,0,VALID,18.8959,VALID,139,VALID,0.951758,
2004-06-19, 02:07:01,VALID,918.81,VALID,0,VALID,98.9308,VALID,-0.0169808,VALID,18.9448,VALID,138,VALID,0.903888,
2004-06-19, 02:08:01,VALID,918.792,VALID,0,VALID,99.1127,VALID,0,VALID,18.9932,VALID,139,VALID,0.901042,
2004-06-19, 02:09:00,VALID,918.794,VALID,0,VALID,99.2322,VALID,0,VALID,19.0215,VALID,134,VALID,0.836119,
2004-06-19, 02:10:01,VALID,918.797,VALID,0,VALID,99.1089,VALID,0.0169808,VALID,19.0474,VALID,134,VALID,0.790551,
2004-06-19, 02:11:00,VALID,918.804,VALID,0,VALID,99.2322,VALID,-0.0169808,VALID,19.0541,VALID,130,VALID,0.749112,
2004-06-19, 02:12:01,VALID,918.799,VALID,0,VALID,99.2983,VALID,0.0169808,VALID,19.07,VALID,120,VALID,0.664825,
2004-06-19, 02:13:00,VALID,918.795,VALID,0,VALID,99.311,VALID,0.0169808,VALID,19.0637,VALID,120,VALID,0.821007,
2004-06-19, 02:14:01,VALID,918.788,VALID,0,VALID,99.3797,VALID,-0.0169808,VALID,19.0702,VALID,120,VALID,0.589472,
2004-06-19, 02:15:00,VALID,918.776,VALID,0,VALID,99.306,VALID,0,VALID,19.058,VALID,121,VALID,0.605824,
2004-06-19, 02:16:00,VALID,918.753,VALID,0,VALID,98.9868,VALID,-0.0169808,VALID,19.0036,VALID,111,VALID,0.566051,
2004-06-19, 02:17:01,VALID,918.739,VALID,0,VALID,98.8965,VALID,0,VALID,18.9351,VALID,107,VALID,0.43125,
2004-06-19, 02:18:01,VALID,918.725,VALID,0,VALID,98.955,VALID,0,VALID,18.8703,VALID,107,VALID,0.405506,
2004-06-19, 02:19:00,VALID,918.72,VALID,0,VALID,98.9944,VALID,0,VALID,18.8412,VALID,107,VALID,0.350632,
2004-06-19, 02:20:00,VALID,918.707,VALID,0,VALID,99.0415,VALID,-0.0679233,VALID,18.8161,VALID,107,VALID,0.284784,
2004-06-19, 02:21:00,VALID,918.705,VALID,0,VALID,99.0008,VALID,-0.0339617,VALID,18.7841,VALID,107,VALID,0.00483631,
2004-06-19, 02:22:00,VALID,918.723,VALID,0,VALID,99.016,VALID,0,VALID,18.7449,VALID,107,VALID,0.0138672,
2004-06-19, 02:23:01,VALID,918.721,VALID,0,VALID,98.8456,VALID,-0.0169808,VALID,18.6868,VALID,107,VALID,0.228472,
2004-06-19, 02:24:01,VALID,918.716,VALID,0,VALID,98.2556,VALID,0,VALID,18.5443,VALID,89,VALID,0.468568,
2004-06-19, 02:25:00,VALID,918.725,VALID,0,VALID,98.3879,VALID,0,VALID,18.4901,VALID,71,VALID,0.550249,
2004-06-19, 02:26:00,VALID,918.723,VALID,0,VALID,98.81,VALID,-0.0169808,VALID,18.4867,VALID,71,VALID,0.657812,
2004-06-19, 02:27:01,VALID,918.709,VALID,0,VALID,99.0415,VALID,-0.0339617,VALID,18.5088,VALID,64,VALID,0.755729,
2004-06-19, 02:28:00,VALID,918.703,VALID,0,VALID,98.337,VALID,-0.0509425,VALID,18.406,VALID,56,VALID,0.811133,
2004-06-19, 02:29:00,VALID,918.663,VALID,0,VALID,98.8469,VALID,0,VALID,18.4159,VALID,56,VALID,0.671528,
2004-06-19, 02:30:00,VALID,918.644,VALID,0,VALID,99.6783,VALID,-0.0169808,VALID,18.4862,VALID,61,VALID,0.672619,
2004-06-19, 02:31:00,VALID,918.635,VALID,0,VALID,100,VALID,-0.0339617,VALID,18.6222,VALID,77,VALID,0.813244,
2004-06-19, 02:32:01,VALID,918.617,VALID,0,VALID,100,VALID,-0.0169808,VALID,18.7357,VALID,82,VALID,0.632813,
2004-06-19, 02:33:00,VALID,918.606,VALID,0,VALID,100,VALID,-0.0169808,VALID,18.7896,VALID,88,VALID,0.671094,
2004-06-19, 02:34:00,VALID,918.605,VALID,0,VALID,99.9964,VALID,-0.0169808,VALID,18.8159,VALID,89,VALID,0.413154,
2004-06-19, 02:35:00,VALID,918.6,VALID,0,VALID,99.6849,VALID,0,VALID,18.7901,VALID,89,VALID,0.371838,
2004-06-19, 02:36:00,VALID,918.592,VALID,0,VALID,99.4446,VALID,0,VALID,18.722,VALID,89,VALID,0.377907,
2004-06-19, 02:37:01,VALID,918.595,VALID,0,VALID,99.2042,VALID,0,VALID,18.6706,VALID,90,VALID,0.462573,
2004-06-19, 02:38:00,VALID,918.576,VALID,0,VALID,99.1674,VALID,-0.0339617,VALID,18.6158,VALID,104,VALID,0.768111,
2004-06-19, 02:39:01,VALID,918.564,VALID,0,VALID,99.0084,VALID,0,VALID,18.5671,VALID,132,VALID,0.75657,
2004-06-19, 02:40:00,VALID,918.567,VALID,0,VALID,99.3327,VALID,0,VALID,18.5286,VALID,140,VALID,0.988372,
2004-06-19, 02:41:01,VALID,918.559,VALID,0,VALID,99.7599,VALID,0,VALID,18.5773,VALID,137,VALID,1.09146,
2004-06-19, 02:42:00,VALID,918.55,VALID,0,VALID,99.8616,VALID,0,VALID,18.6158,VALID,128,VALID,1.18155,
2004-06-19, 02:43:00,VALID,918.534,VALID,0,VALID,99.9049,VALID,-0.0339617,VALID,18.6483,VALID,128,VALID,1.11452,
2004-06-19, 02:44:01,VALID,918.533,VALID,0,VALID,99.7701,VALID,-0.0339617,VALID,18.6577,VALID,128,VALID,0.978966,
2004-06-19, 02:45:00,VALID,918.516,VALID,0,VALID,99.7002,VALID,-0.0169808,VALID,18.661,VALID,127,VALID,1.08251,
2004-06-19, 02:46:00,VALID,918.511,VALID,0,VALID,99.6239,VALID,-0.0169808,VALID,18.6647,VALID,127,VALID,1.09863,
2004-06-19, 02:47:01,VALID,918.512,VALID,0,VALID,99.6607,VALID,0,VALID,18.6674,VALID,127,VALID,1.11942,
2004-06-19, 02:48:00,VALID,918.533,VALID,0,VALID,99.5717,VALID,-0.0169808,VALID,18.6709,VALID,127,VALID,0.96317,
2004-06-19, 02:49:00,VALID,918.536,VALID,0,VALID,99.4026,VALID,0,VALID,18.6711,VALID,127,VALID,0.792225,
2004-06-19, 02:50:00,VALID,918.552,VALID,0,VALID,99.3505,VALID,0,VALID,18.6515,VALID,127,VALID,0.80599,
2004-06-19, 02:51:01,VALID,918.55,VALID,0,VALID,99.395,VALID,-0.0849042,VALID,18.6495,VALID,130,VALID,0.858422,
2004-06-19, 02:52:00,VALID,918.555,VALID,0,VALID,99.3734,VALID,0,VALID,18.6349,VALID,122,VALID,0.730097,
2004-06-19, 02:53:00,VALID,918.543,VALID,0,VALID,99.3238,VALID,0,VALID,18.6254,VALID,125,VALID,0.477121,
2004-06-19, 02:54:00,VALID,918.542,VALID,0,VALID,99.311,VALID,0,VALID,18.6225,VALID,125,VALID,0.448765,
2004-06-19, 02:55:00,VALID,918.542,VALID,0,VALID,99.3225,VALID,0,VALID,18.6095,VALID,125,VALID,0.231898,
2004-06-19, 02:56:01,VALID,918.55,VALID,0,VALID,99.3352,VALID,-0.0169808,VALID,18.5969,VALID,125,VALID,0.0649858,
2004-06-19, 02:57:00,VALID,918.559,VALID,0,VALID,99.3962,VALID,-0.0169808,VALID,18.5999,VALID,125,VALID,0.0442073,
2004-06-19, 02:58:00,VALID,918.559,VALID,0,VALID,99.3708,VALID,-0.0679233,VALID,18.6102,VALID,125,VALID,0.178943,
2004-06-19, 02:59:01,VALID,918.566,VALID,0,VALID,99.2258,VALID,0,VALID,18.5736,VALID,125,VALID,0.0486328,
2004-06-19, 03:00:01,VALID,918.565,VALID,0,VALID,99.3021,VALID,0,VALID,18.5805,VALID,125,VALID,0.255556,
2004-06-19, 03:01:01,VALID,918.563,VALID,0,VALID,99.4776,VALID,-0.0339617,VALID,18.5837,VALID,125,VALID,0.412109,
2004-06-19, 03:02:01,VALID,918.553,VALID,0,VALID,99.7269,VALID,-0.0339617,VALID,18.6063,VALID,125,VALID,0.494792,
2004-06-19, 03:03:01,VALID,918.54,VALID,0,VALID,99.8833,VALID,-0.0169808,VALID,18.6679,VALID,125,VALID,0.568164,
2004-06-19, 03:04:01,VALID,918.547,VALID,0,VALID,99.9791,VALID,0,VALID,18.6974,VALID,115,VALID,0.654433,
2004-06-19, 03:05:01,VALID,918.529,VALID,0,VALID,99.984,VALID,0,VALID,18.7131,VALID,97,VALID,0.606517,
2004-06-19, 03:06:01,VALID,918.529,VALID,0,VALID,100,VALID,0.0169808,VALID,18.7739,VALID,91,VALID,0.623884,
2004-06-19, 03:07:01,VALID,918.509,VALID,0,VALID,100,VALID,0,VALID,18.8387,VALID,101,VALID,0.741493,
2004-06-19, 03:08:01,VALID,918.528,VALID,0,VALID,100,VALID,-0.0169808,VALID,18.9033,VALID,113,VALID,0.783067,
2004-06-19, 03:09:01,VALID,918.541,VALID,0,VALID,100,VALID,-0.0169808,VALID,18.984,VALID,120,VALID,0.546503,
2004-06-19, 03:10:01,VALID,918.53,VALID,0,VALID,100,VALID,0,VALID,19.016,VALID,121,VALID,0.624092,
2004-06-19, 03:11:01,VALID,918.545,VALID,0,VALID,100,VALID,-0.0169808,VALID,19.0329,VALID,121,VALID,0.556176,
2004-06-19, 03:12:00,VALID,918.541,VALID,0,VALID,100,VALID,-0.0509425,VALID,19.026,VALID,121,VALID,0.520579,
2004-06-19, 03:13:01,VALID,918.543,VALID,0,VALID,100,VALID,-0.0339617,VALID,19.0642,VALID,121,VALID,0.449479,
2004-06-19, 03:14:01,VALID,918.546,VALID,0,VALID,100,VALID,0,VALID,19.0776,VALID,121,VALID,0.558594,
2004-06-19, 03:15:01,VALID,918.56,VALID,0,VALID,100,VALID,-0.0169808,VALID,19.0749,VALID,121,VALID,0.3875,
2004-06-19, 03:16:01,VALID,918.575,VALID,0,VALID,100,VALID,0,VALID,19.0515,VALID,121,VALID,0.20625,
2004-06-19, 03:17:01,VALID,918.579,VALID,0,VALID,99.9695,VALID,-0.0169808,VALID,19.0416,VALID,121,VALID,0.00690407,
2004-06-19, 03:18:01,VALID,918.594,VALID,0,VALID,99.8998,VALID,-0.0169808,VALID,19.029,VALID,121,VALID,0,
2004-06-19, 03:19:01,VALID,918.606,VALID,0,VALID,99.7726,VALID,0,VALID,19.0101,VALID,121,VALID,0,
2004-06-19, 03:20:01,VALID,918.61,VALID,0,VALID,99.6022,VALID,-0.0339617,VALID,18.9612,VALID,121,VALID,0,
2004-06-19, 03:21:01,VALID,918.627,VALID,0,VALID,99.428,VALID,-0.0169808,VALID,18.9125,VALID,121,VALID,0,
2004-06-19, 03:22:01,VALID,918.639,VALID,0,VALID,99.4675,VALID,-0.0169808,VALID,18.8931,VALID,121,VALID,0.0504954,
2004-06-19, 03:23:01,VALID,918.641,VALID,0,VALID,99.5743,VALID,0,VALID,18.9194,VALID,121,VALID,0,
2004-06-19, 03:24:00,VALID,918.624,VALID,0,VALID,99.5603,VALID,0,VALID,18.9229,VALID,121,VALID,0,
2004-06-19, 03:25:01,VALID,918.632,VALID,0,VALID,99.5692,VALID,0,VALID,18.919,VALID,121,VALID,0,
2004-06-19, 03:26:00,VALID,918.606,VALID,0,VALID,99.4433,VALID,-0.0169808,VALID,18.9192,VALID,121,VALID,0,
2004-06-19, 03:27:01,VALID,918.597,VALID,0,VALID,99.3772,VALID,-0.0339617,VALID,18.9197,VALID,121,VALID,0,
2004-06-19, 03:28:01,VALID,918.582,VALID,0,VALID,99.3988,VALID,-0.0169808,VALID,18.9353,VALID,121,VALID,0,
2004-06-19, 03:29:01,VALID,918.576,VALID,0,VALID,99.3174,VALID,0,VALID,18.9453,VALID,121,VALID,0,
2004-06-19, 03:30:01,VALID,918.57,VALID,0,VALID,99.4853,VALID,-0.0339617,VALID,18.9674,VALID,121,VALID,0,
2004-06-19, 03:31:01,VALID,918.589,VALID,0,VALID,99.6124,VALID,-0.0169808,VALID,19.0098,VALID,121,VALID,0,
2004-06-19, 03:32:01,VALID,918.593,VALID,0,VALID,99.4725,VALID,0,VALID,19.0322,VALID,121,VALID,0,
2004-06-19, 03:33:01,VALID,918.595,VALID,0,VALID,99.395,VALID,-0.0169808,VALID,19.0225,VALID,121,VALID,0.0639881,
2004-06-19, 03:34:01,VALID,918.611,VALID,0,VALID,99.3988,VALID,-0.0169808,VALID,19.0093,VALID,121,VALID,0.376906,
2004-06-19, 03:35:01,VALID,918.62,VALID,0,VALID,99.5425,VALID,0,VALID,19.0223,VALID,121,VALID,0.52934,
2004-06-19, 03:36:01,VALID,918.617,VALID,0,VALID,99.587,VALID,0,VALID,19.0391,VALID,121,VALID,0.6121,
2004-06-19, 03:37:01,VALID,918.598,VALID,0,VALID,99.6684,VALID,0,VALID,19.0411,VALID,121,VALID,0.591406,